RH
29 47 63 61 64 67 65 69 63 63 71 66 66 67 62 57 50 50 55 58 60 61 68 73 66 63 64 62 56 49 49 51 49 48 46 46 46 45 44 41 39 38 37 40 40 39 41 42 42 42 42 43 43 43 44 43 43 44 43 44 44 45 47 50 53 53 53 53 52 51 49 46 42 39 35 31 28 25 24 25 25 26 25 24 23 22
33 53 65 62 66 67 64 67 62 60 65 63 59 58 58 59 55 53 59 66 62 55 63 71 67 64 65 66 59 51 55 55 50 50 47 46 46 45 44 41 39 37 35 37 36 35 38 39 39 41 40 41 41 41 43 44 44 45 45 45 47 49 51 52 53 54 53 53 52 49 46 43 38 35 31 29 27 28 29 30 31 31 31 29 27 25
47 58 57 58 63 60 61 64 56 54 62 61 61 69 61 50 53 56 60 71 67 55 61 69 66 65 68 70 64 57 57 53 48 49 48 46 46 45 44 43 42 40 37 34 32 33 35 37 39 39 38 37 38 40 42 43 43 44 44 45 47 49 52 54 55 55 54 53 51 48 45 41 37 34 31 30 31 33 34 34 36 36 35 34 31 28
48 49 49 55 54 53 57 60 58 55 55 53 56 65 55 44 49 47 51 68 69 61 66 71 66 66 69 69 65 58 55 52 49 49 49 48 48 47 46 45 46 44 37 32 31 33 34 35 37 35 34 35 37 38 38 40 41 42 43 44 46 50 52 55 56 57 56 55 52 49 46 42 38 35 34 34 35 36 37 38 40 40 40 37 33 31
44 39 47 56 53 55 51 50 61 53 50 63 64 55 45 45 48 45 55 69 67 64 67 65 60 61 66 69 65 57 57 58 54 53 52 50 49 48 49 46 46 43 37 33 30 31 33 33 33 32 34 36 34 33 32 35 38 40 42 44 46 50 52 55 57 58 58 56 55 51 48 45 41 39 38 38 39 39 40 42 44 43 43 40 34 31
38 33 47 56 52 53 47 47 57 49 50 60 56 47 39 40 47 53 64 68 65 61 58 57 53 54 64 73 70 60 64 67 60 61 57 53 52 50 50 46 43 40 36 35 30 28 32 30 29 29 29 30 28 25 26 31 36 39 42 44 45 48 49 52 55 58 60 58 57 55 52 50 46 44 42 42 42 42 43 45 47 47 44 40 34 32
38 37 49 57 52 50 50 48 51 61 63 42 33 45 45 45 53 60 63 61 62 55 50 54 51 51 52 53 65 70 73 72 64 66 62 56 56 51 48 43 39 38 33 31 29 26 27 25 26 24 21 24 22 22 27 32 36 38 40 42 44 45 46 48 52 57 60 60 61 59 58 56 54 52 49 48 47 45 47 49 50 51 47 40 35 34
39 44 45 50 50 49 50 42 45 66 57 26 31 51 52 54 59 67 68 62 62 52 52 57 44 51 51 39 65 81 75 76 71 67 65 58 52 45 41 37 33 31 28 27 25 22 23 22 23 20 19 22 22 24 29 31 32 35 39 42 43 45 45 46 49 54 58 59 61 62 63 62 61 60 59 56 53 50 50 51 53 54 48 41 37 36
42 49 38 39 44 41 40 37 44 56 42 33 52 59 56 64 69 78 78 73 72 54 55 60 33 40 51 38 66 86 72 73 69 62 63 53 39 32 31 30 28 26 25 26 23 20 20 20 20 19 21 24 24 26 29 29 31 33 37 41 43 44 43 44 47 50 54 56 60 65 66 66 65 66 66 64 61 57 55 54 56 57 49 43 41 39
43 46 36 37 39 35 36 44 55 52 35 38 57 58 56 69 77 79 75 73 71 54 54 55 28 32 43 30 52 72 65 70 67 61 61 43 26 25 24 22 22 23 24 25 23 21 20 20 20 22 24 25 23 26 29 30 32 32 34 37 39 39 39 42 45 47 50 53 58 64 66 67 68 69 71 70 68 65 60 57 59 59 51 46 44 42
46 47 43 39 35 35 39 46 56 49 34 36 50 48 35 44 62 72 81 72 55 53 60 52 32 31 36 32 44 54 57 66 60 52 51 34 20 21 21 20 21 22 23 24 24 24 23 22 23 25 25 23 22 25 29 29 29 30 32 34 35 36 37 40 43 46 48 51 56 59 63 66 69 72 75 75 74 71 67 62 61 59 53 49 47 45
46 43 44 41 35 39 38 33 42 45 39 36 40 34 18 26 36 46 70 59 36 49 57 47 42 40 38 36 38 45 57 68 58 44 42 33 19 14 15 19 21 23 23 24 25 24 24 24 24 25 24 22 23 26 27 27 29 30 31 33 35 35 36 37 40 44 45 48 52 53 57 61 65 72 77 78 78 76 72 66 63 61 55 52 50 47
41 39 39 39 36 37 30 22 32 44 42 35 39 45 46 49 35 36 59 44 30 48 45 38 42 37 36 31 24 32 41 50 52 41 35 28 19 14 14 17 20 24 24 23 25 25 25 26 24 25 25 24 26 26 27 29 30 33 33 34 36 35 36 38 40 43 44 46 47 48 51 54 59 68 75 79 80 80 77 70 65 62 57 54 51 49
38 35 35 31 26 29 28 16 18 31 34 33 44 51 55 55 36 40 59 38 27 45 39 35 41 37 35 27 25 29 22 25 32 28 26 25 24 21 19 21 21 21 21 21 24 25 25 27 26 27 28 28 29 28 29 32 33 36 37 37 38 37 37 40 42 43 44 45 44 45 48 50 56 63 70 78 81 82 82 74 67 63 60 56 53 52
28 16 21 22 18 29 37 28 23 31 36 40 47 39 40 55 42 38 54 40 34 54 49 34 38 49 43 28 31 31 20 23 25 26 31 28 30 31 25 23 21 18 20 20 22 24 24 26 27 29 29 29 30 30 32 35 36 38 38 39 39 38 39 41 43 45 45 45 44 46 49 50 55 62 69 79 83 85 86 78 70 65 61 58 56 54
36 17 29 34 28 34 38 40 43 37 29 35 40 26 25 49 54 52 61 55 50 71 80 58 47 56 43 23 30 34 31 34 29 32 35 26 29 33 24 20 18 18 21 20 23 25 25 26 25 26 26 26 30 34 37 40 41 43 43 44 45 43 43 43 46 48 47 47 47 49 51 52 57 64 71 77 80 84 87 80 71 67 64 62 60 57
40 29 47 53 42 40 38 42 48 32 16 21 25 22 25 37 54 61 59 61 63 66 73 60 47 50 34 18 35 46 41 38 37 39 33 22 24 24 18 17 18 21 23 23 26 26 25 26 24 24 25 28 33 36 40 41 43 47 49 49 50 48 49 49 49 50 50 52 54 54 56 57 60 65 69 73 76 82 86 78 70 70 70 67 65 62
41 33 48 53 38 40 44 41 45 35 23 20 16 25 37 39 53 61 51 62 74 64 59 52 47 50 36 26 41 46 35 34 42 42 28 18 17 16 17 19 21 24 25 26 26 25 26 26 25 27 28 31 35 35 36 38 42 51 55 57 58 58 58 59 59 61 62 63 65 65 64 65 67 68 69 72 76 81 85 81 73 73 74 73 73 70
49 30 34 47 38 42 48 40 45 43 30 24 20 26 33 31 46 57 48 50 53 53 63 59 54 57 45 38 41 35 31 38 40 39 34 26 18 17 20 22 24 26 26 27 26 25 28 28 28 32 33 34 35 35 37 39 43 52 60 66 71 72 72 74 76 78 79 79 79 78 77 76 75 74 75 78 81 84 85 82 77 76 78 81 81 75
50 25 24 41 39 42 46 43 53 52 37 32 32 38 41 40 50 53 49 55 50 52 68 61 49 52 50 50 47 34 36 41 34 36 41 30 19 20 24 25 26 28 29 29 27 28 31 33 36 37 37 38 38 39 41 43 47 51 57 66 73 76 78 81 83 85 88 90 91 92 92 91 87 84 85 85 85 88 87 79 76 80 85 87 85 78
50 28 30 42 37 34 34 40 52 48 44 46 43 50 51 44 49 47 47 67 64 56 70 66 48 45 49 53 44 32 37 41 35 39 40 28 21 25 26 26 28 31 33 30 29 34 37 38 40 39 40 43 43 46 49 52 57 61 65 72 75 77 80 82 83 85 88 91 94 97 98 98 96 94 95 93 88 87 83 78 79 87 92 91 88 82
43 35 46 49 35 26 26 40 51 39 41 51 48 55 59 51 55 51 51 76 78 61 67 67 45 30 39 51 42 32 36 36 32 35 36 29 25 27 26 28 33 34 33 32 35 40 42 43 45 47 50 52 53 57 61 65 70 73 77 81 82 85 87 89 90 91 92 93 94 96 95 93 91 89 94 96 94 87 77 76 84 92 95 94 90 84
48 49 54 45 31 24 26 43 55 44 40 43 40 47 59 62 59 49 53 75 77 66 72 82 68 40 33 46 44 33 31 28 26 31 35 31 27 28 29 32 35 33 33 37 42 46 49 52 56 58 60 62 65 69 72 75 77 78 80 80 80 82 82 83 86 86 88 91 92 94 95 94 90 88 92 96 98 90 75 74 87 95 96 94 90 84
56 54 45 44 40 28 28 46 57 52 48 48 50 53 56 64 66 58 64 75 71 65 66 72 72 50 38 51 51 37 32 30 30 32 33 31 27 29 34 35 34 34 39 46 50 55 59 62 64 66 69 71 73 75 77 78 79 78 76 73 71 69 66 64 63 64 70 78 84 88 92 95 96 97 99 99 98 89 75 78 93 97 95 93 90 83
45 47 38 42 40 24 31 51 52 48 51 55 66 68 58 72 90 79 71 78 76 68 58 54 52 40 40 55 52 41 38 34 31 29 28 29 32 34 36 35 36 42 50 57 62 67 70 72 74 76 77 78 77 78 78 78 75 71 67 62 57 52 49 47 48 50 56 66 79 87 90 93 96 99 101 98 92 85 81 88 97 97 96 94 89 82
40 51 38 27 26 21 24 32 36 47 55 53 63 69 58 66 78 67 67 82 80 71 66 61 49 30 29 40 38 35 37 35 32 28 27 32 36 37 36 38 45 55 63 70 76 81 81 81 81 79 78 79 78 76 74 70 65 59 54 50 48 49 49 48 50 52 53 60 75 84 86 90 95 100 99 91 85 85 90 97 99 98 98 94 88 82
58 62 48 33 27 24 18 15 28 46 43 33 43 59 64 66 65 65 79 85 78 78 74 60 47 38 34 35 33 32 34 36 35 31 33 38 38 37 41 48 58 66 73 80 84 85 83 81 80 79 78 76 73 70 67 62 57 54 51 53 61 69 69 67 66 65 62 63 68 74 80 87 94 96 92 86 86 91 97 101 100 99 98 93 88 81
67 55 54 56 40 28 22 18 29 41 33 25 33 44 57 70 70 71 72 62 61 71 61 42 47 53 43 31 30 31 32 35 37 37 39 40 40 46 55 61 68 74 81 86 85 83 81 80 79 77 74 71 69 68 65 60 58 59 59 69 85 90 88 90 87 79 74 73 73 76 79 83 88 90 89 91 94 98 100 101 100 99 96 92 87 79
62 50 58 67 51 42 42 34 37 48 44 43 48 47 52 66 71 68 61 50 52 57 43 32 43 50 40 31 31 32 34 38 41 41 39 39 48 61 67 70 75 82 88 89 85 83 81 78 77 74 72 73 75 73 68 64 67 66 65 81 98 98 96 98 91 80 76 79 86 93 92 91 93 93 93 95 96 97 99 99 99 98 96 91 85 78
48 60 80 80 60 49 51 48 48 55 56 54 57 55 52 57 64 64 58 51 51 54 47 40 46 47 40 37 37 34 35 37 38 38 38 45 59 69 72 76 82 86 88 85 82 81 78 75 76 77 79 82 81 76 73 74 74 67 66 84 99 98 93 90 85 82 80 78 84 89 87 85 84 83 85 89 92 97 99 99 99 97 94 89 84 80
37 65 95 89 65 48 52 60 56 55 61 57 50 48 47 49 57 60 58 56 58 63 59 54 60 61 45 37 38 34 29 31 36 39 45 59 71 73 73 79 85 86 84 81 79 77 75 78 83 85 87 88 84 81 80 79 71 61 66 87 101 100 94 88 87 90 86 80 78 75 71 70 70 74 85 93 97 99 98 97 97 94 91 88 83 81
43 60 76 70 55 45 52 66 63 55 59 59 53 49 45 48 59 60 57 61 63 60 57 57 61 57 40 32 34 30 28 35 42 46 52 64 74 74 76 82 84 82 79 76 74 73 78 86 90 91 91 89 87 85 80 72 61 54 67 92 104 100 92 89 92 93 86 80 75 70 68 70 74 81 90 93 94 94 93 94 93 91 89 87 84 84
61 60 61 59 55 54 58 64 65 58 54 51 50 49 43 45 56 55 48 53 55 48 47 50 45 37 33 34 33 32 36 44 48 52 59 69 75 76 80 82 80 76 74 71 72 76 85 91 91 92 94 92 89 84 72 62 57 56 68 88 97 92 87 90 94 91 83 77 72 69 71 75 80 86 89 89 89 88 88 88 88 88 87 86 87 86
85 65 60 62 58 67 77 67 56 54 51 44 41 43 39 34 39 40 33 35 41 40 42 42 35 31 33 34 32 35 44 51 55 62 69 75 77 78 79 79 76 72 69 70 77 85 89 92 93 96 97 92 86 77 63 56 57 58 64 73 78 80 83 88 89 86 80 75 71 73 75 77 81 85 86 86 87 86 85 83 82 83 84 85 88 88
94 68 66 76 70 77 85 67 47 48 51 42 36 38 34 25 29 34 30 28 30 34 38 37 33 33 33 31 32 40 51 59 62 68 75 77 77 78 77 75 72 70 70 77 86 89 91 96 99 99 95 89 79 67 57 54 55 56 60 63 67 73 81 86 86 83 78 74 74 77 77 77 78 81 84 86 87 85 82 78 76 77 79 83 85 86
90 80 77 84 81 77 75 64 48 42 42 34 31 38 38 32 33 36 39 41 35 31 37 37 35 36 32 30 35 45 55 60 62 69 78 79 79 79 75 72 70 70 77 85 89 90 94 100 101 98 92 83 69 58 55 55 54 54 57 60 64 72 79 82 81 78 74 75 78 79 77 76 76 77 80 82 82 80 76 73 72 74 78 82 83 84
74 82 77 72 75 74 75 76 60 41 40 39 34 36 36 30 30 36 46 51 42 34 37 37 37 38 33 31 39 50 61 66 68 74 79 80 82 79 73 72 72 75 83 89 89 93 98 101 100 95 85 71 61 56 54 54 53 55 57 59 64 69 72 73 73 72 71 72 74 74 74 74 73 72 72 71 72 72 71 71 72 74 79 81 82 82
64 75 71 62 72 79 77 82 76 56 49 46 37 34 34 30 30 36 46 50 45 36 33 35 39 38 35 40 50 61 70 72 71 74 77 79 81 78 74 75 78 80 86 89 89 92 97 98 93 83 71 61 56 53 50 48 50 54 56 58 61 63 64 66 66 65 64 64 65 67 69 70 69 68 68 67 68 69 70 71 72 74 77 78 78 77
66 77 73 62 75 85 76 80 83 64 47 43 41 38 36 33 32 38 49 58 52 37 29 35 40 38 40 50 61 74 80 74 68 71 78 81 80 77 77 80 82 85 86 87 87 89 92 91 81 68 60 55 51 47 44 44 48 52 53 52 53 55 57 58 59 58 59 61 62 64 66 67 67 67 68 68 69 70 71 71 71 73 73 73 73 72
78 86 83 73 81 87 82 88 88 65 48 46 45 41 38 35 34 42 59 67 53 34 31 39 43 43 49 57 69 83 84 72 68 76 82 83 79 77 80 83 85 87 86 86 87 84 81 76 66 57 54 52 48 44 43 43 46 48 48 47 48 51 52 53 56 58 60 62 64 66 67 68 68 68 69 70 70 70 71 71 71 71 71 71 71 69
91 95 90 88 96 95 91 96 91 72 60 53 44 39 35 33 37 48 60 59 42 30 35 44 48 52 57 62 73 81 75 66 70 79 81 80 79 80 84 87 88 88 87 87 86 79 69 63 57 54 54 53 49 44 42 43 44 45 46 47 49 51 52 54 57 59 61 64 66 67 68 69 70 70 70 70 71 70 70 70 71 71 70 70 69 68
82 101 101 97 98 94 93 99 92 72 56 47 45 42 32 34 49 57 50 39 31 31 40 49 54 58 61 64 69 70 68 69 75 78 78 80 82 84 88 90 89 89 88 86 80 70 61 57 56 54 52 50 48 44 43 44 44 45 47 49 51 53 54 56 58 59 61 64 66 68 69 70 70 70 70 71 71 71 70 70 71 71 70 69 68 67
61 83 97 97 91 89 95 100 90 70 51 40 43 46 39 41 51 47 33 30 33 37 44 51 56 58 61 64 66 68 72 76 77 78 80 83 86 88 90 91 89 87 85 78 70 63 57 55 53 51 49 48 46 45 44 43 44 46 48 50 52 54 55 56 58 59 60 62 64 66 67 67 67 68 68 69 70 70 70 70 71 71 71 70 69 67
50 54 69 77 76 80 90 87 69 54 45 36 33 37 38 36 33 29 28 33 38 41 48 53 56 58 60 64 68 72 76 77 78 81 83 86 89 91 91 89 85 82 77 68 62 59 56 51 47 44 44 46 45 44 45 45 45 47 49 51 53 53 54 56 57 57 59 60 61 62 62 63 63 64 64 65 66 67 67 68 69 69 70 71 70 68
47 42 46 52 54 58 59 55 44 35 33 30 25 26 28 26 26 28 30 34 38 43 49 51 53 56 60 65 71 76 79 80 81 82 85 89 92 92 90 86 81 80 74 63 58 57 53 47 43 40 41 44 44 44 47 47 48 48 50 52 54 54 55 57 57 58 59 59 60 61 60 60 61 62 63 64 65 65 65 66 67 66 66 68 68 68
38 32 36 42 47 44 34 31 33 29 28 29 26 26 28 27 29 32 32 35 40 43 45 47 49 54 60 67 75 79 81 81 82 84 90 94 93 91 88 80 73 71 66 58 54 53 48 44 41 39 40 43 44 46 48 49 50 51 52 54 55 56 58 58 58 59 60 60 61 62 61 61 61 62 63 64 65 66 66 67 68 66 65 66 67 67
39 28 34 37 40 40 33 31 32 27 25 26 25 26 29 30 32 33 35 38 40 41 43 46 50 56 64 71 78 82 83 84 86 90 94 95 92 89 82 71 62 60 58 54 50 46 43 40 39 39 40 42 44 46 48 50 52 54 55 56 57 58 59 60 61 61 61 61 62 62 63 63 62 63 64 65 66 67 67 69 71 71 69 68 68 69
39 31 39 39 35 34 32 30 28 26 26 26 27 29 30 30 32 34 35 39 41 42 45 49 54 62 70 76 82 85 86 88 92 95 96 93 89 82 71 60 54 53 54 53 48 43 42 40 39 40 41 42 44 47 48 51 53 55 57 58 58 58 59 61 62 62 62 63 63 63 64 65 64 65 65 65 66 68 68 70 71 72 72 73 74 74
36 37 44 44 39 37 35 31 29 33 35 30 28 31 31 31 34 36 38 42 43 45 50 56 62 69 75 80 85 88 91 95 96 96 94 88 81 71 60 54 52 50 49 47 43 41 41 40 39 41 42 44 46 48 50 52 55 56 58 58 59 59 60 60 61 61 62 62 62 63 63 63 64 66 66 65 66 66 67 70 72 73 72 72 74 76
37 41 44 47 50 49 43 36 34 41 44 37 31 32 34 35 38 41 43 44 46 50 56 61 67 74 80 85 89 92 95 97 96 93 88 79 69 61 55 52 51 47 44 42 40 40 40 40 41 42 43 46 48 49 51 54 55 57 59 59 60 61 61 61 60 59 60 61 62 62 62 62 63 65 66 67 67 65 63 64 69 74 76 75 76 78
39 39 40 47 54 48 36 31 33 37 40 36 33 35 38 39 42 44 45 46 49 53 58 63 71 78 84 88 93 95 96 95 92 88 79 68 60 57 55 53 48 43 39 38 38 39 40 41 42 43 44 47 49 50 53 56 56 58 59 60 61 62 62 63 61 58 58 61 62 63 63 63 62 63 64 66 68 68 65 60 58 63 70 76 79 80
Wind_Speed
11 8 6 3 4 6 7 5 2 2 5 7 5 5 4 3 1 3 3 5 7 4 2 2 1 4 6 6 8 10 10 11 13 14 15 15 15 15 14 14 14 14 12 10 12 13 12 13 14 14 16 16 18 18 19 20 20 21 21 21 21 21 21 20 21 22 23 24 25 25 26 26 26 27 27 27 28 28 28 29 29 30 30 31 31 33
11 8 3 5 6 6 6 2 3 5 6 6 6 5 5 2 1 2 2 5 7 2 1 2 1 5 6 6 8 10 9 12 16 17 17 18 17 17 17 16 15 14 13 13 13 13 13 13 14 15 17 18 19 19 20 21 21 22 23 23 22 23 23 23 24 25 25 26 27 27 27 27 27 27 28 28 28 29 29 30 31 31 32 32 32 33
8 4 5 7 5 2 5 5 5 7 7 5 4 4 3 2 2 3 2 5 6 1 2 1 1 6 6 5 9 12 13 15 18 18 19 19 19 20 20 19 18 17 16 15 14 13 13 14 14 16 17 18 20 20 22 23 24 25 25 25 25 26 26 26 27 28 28 28 29 29 29 29 29 29 29 29 29 30 31 31 32 33 33 34 34 34
5 2 6 7 4 2 5 8 6 7 6 4 5 4 0 3 1 1 2 4 4 1 1 2 1 5 5 4 8 14 18 18 19 19 20 22 23 24 23 22 21 21 20 17 15 15 15 15 16 17 17 18 20 21 23 25 26 27 27 27 27 28 29 29 30 30 31 31 31 31 31 31 31 30 30 31 31 31 32 32 33 34 34 35 35 34
4 4 7 6 5 4 5 9 8 6 5 3 2 5 1 3 1 3 3 3 3 3 3 3 3 5 3 4 7 9 13 18 20 20 23 26 26 26 26 26 25 24 22 19 18 16 16 17 17 17 18 18 20 21 22 24 26 28 28 29 29 30 31 32 33 33 33 34 34 33 33 33 33 32 32 32 32 32 32 33 33 34 35 35 35 33
4 6 6 4 7 7 7 7 6 3 3 4 1 4 3 2 3 2 3 2 3 4 1 3 3 4 3 4 8 4 3 12 15 17 25 29 27 28 30 30 28 25 24 22 20 18 18 19 18 19 19 19 20 20 20 22 25 28 29 30 32 33 34 35 35 36 37 37 36 36 35 35 35 35 35 34 34 34 33 34 34 35 36 36 34 32
2 7 6 5 6 8 8 5 3 2 4 2 1 3 3 3 3 1 0 2 2 2 3 3 2 3 5 4 6 4 4 9 9 13 24 29 29 30 32 32 29 27 25 23 22 21 20 20 20 20 20 20 21 19 19 21 24 27 30 32 33 35 36 37 38 38 40 40 40 39 39 38 38 38 38 37 36 36 35 35 36 36 37 36 34 32
2 7 8 6 6 6 6 4 2 4 5 0 1 2 1 4 5 4 4 3 1 1 2 3 3 1 5 5 4 3 4 8 8 12 20 27 31 32 32 31 28 27 25 23 22 21 21 21 21 21 21 21 21 20 21 22 24 25 28 31 34 36 38 39 40 41 43 44 44 43 42 42 42 42 41 39 39 38 38 37 37 37 37 36 34 32
1 4 5 4 5 4 2 1 3 4 3 3 1 2 1 5 4 4 5 3 1 2 3 3 1 1 5 5 3 4 3 7 10 11 15 23 28 28 29 28 26 25 24 24 23 22 22 22 22 22 22 23 24 24 25 25 25 26 28 30 34 36 38 40 42 43 45 46 47 46 46 47 47 45 44 42 41 40 39 39 39 38 37 34 33 31
1 0 0 3 4 1 2 4 4 5 1 3 3 4 3 4 4 4 4 3 3 2 4 4 1 1 5 6 3 3 1 6 9 8 11 18 20 19 22 22 21 23 23 24 25 24 23 23 23 25 25 26 27 28 29 29 29 29 30 31 33 35 37 40 42 44 46 48 49 50 50 51 50 48 46 45 44 43 41 41 40 39 36 33 32 30
1 1 1 2 2 2 4 4 3 4 4 2 4 3 3 5 5 3 3 3 4 2 6 5 1 2 2 6 3 2 4 6 6 6 9 13 14 14 16 18 18 20 20 23 25 25 25 25 26 27 29 29 30 31 32 33 33 33 32 33 34 35 36 38 41 44 47 48 51 52 53 54 53 51 49 48 48 46 43 42 41 38 35 33 31 29
4 2 1 2 2 3 2 2 2 2 3 3 4 3 2 2 4 3 4 4 2 4 6 4 1 3 2 6 5 5 6 6 6 5 7 10 13 13 13 15 17 18 19 21 24 25 27 27 29 30 31 32 32 34 36 36 37 36 36 36 36 36 36 38 40 43 46 48 51 52 53 55 55 54 52 51 50 48 45 44 41 38 36 33 30 28
3 1 3 4 3 2 2 0 2 4 5 5 4 5 4 2 4 2 4 2 2 5 4 1 3 0 5 9 8 9 10 10 12 14 13 14 15 13 12 13 15 17 20 22 24 26 27 28 30 31 33 35 36 38 39 40 40 40 40 40 40 39 38 38 41 43 45 47 49 50 52 54 55 56 55 53 52 51 48 45 42 40 36 33 29 28
2 4 5 2 2 2 3 3 1 3 4 5 3 4 4 2 3 2 4 3 4 5 4 2 3 3 4 6 9 11 13 13 14 16 16 16 18 17 15 14 14 16 20 23 25 26 28 29 31 33 35 37 39 40 42 44 44 44 44 44 44 43 41 41 43 44 46 47 48 49 52 53 55 56 56 55 54 52 49 47 43 41 36 32 29 26
2 2 3 0 1 2 3 3 3 3 2 2 2 4 3 4 3 3 4 2 4 5 4 3 1 3 3 4 8 10 11 12 11 13 15 17 19 18 17 15 14 17 20 22 24 26 28 29 31 33 35 37 39 41 43 45 46 47 48 47 48 46 44 44 45 46 47 48 48 50 52 53 55 56 56 56 55 53 52 49 45 40 35 30 27 25
3 3 5 2 1 1 2 2 4 5 2 1 1 3 1 3 4 2 3 4 2 3 4 2 3 4 4 7 9 7 9 12 12 13 14 16 17 15 16 15 15 18 21 23 24 25 26 27 28 31 33 35 38 39 40 41 43 45 47 48 49 48 47 46 47 48 49 50 50 52 53 54 55 56 56 56 55 55 55 51 44 38 33 29 25 23
2 3 4 3 2 1 2 3 2 2 0 1 1 1 2 3 5 3 1 1 3 1 4 2 4 5 4 7 8 5 5 8 7 6 8 11 13 13 14 16 17 19 21 22 23 24 25 26 28 30 32 33 35 36 36 36 37 40 42 44 46 47 47 47 48 49 50 52 53 54 55 55 56 56 56 55 54 56 56 50 42 37 33 28 24 21
3 2 4 0 1 1 1 3 2 3 2 2 1 3 2 2 4 4 0 4 3 2 4 2 4 5 3 4 7 7 6 7 7 5 7 11 13 12 14 18 20 21 22 22 22 23 25 27 29 30 30 30 31 33 33 33 34 36 38 40 43 45 47 48 49 51 53 54 55 56 56 56 56 55 56 56 54 55 56 50 43 38 33 27 22 20
3 1 5 1 2 2 1 2 2 4 3 3 3 4 3 1 1 1 1 1 2 3 5 4 4 3 3 5 6 5 5 7 7 6 7 11 13 14 18 21 22 22 22 22 23 24 26 28 29 28 28 28 28 29 30 30 31 32 33 35 38 41 43 44 46 49 51 53 55 57 57 57 57 56 58 58 56 56 56 51 45 39 32 24 20 18
2 1 4 3 1 3 3 2 2 1 3 3 2 1 2 2 4 2 2 2 2 3 4 4 3 3 6 7 5 8 9 7 7 6 7 11 13 16 20 22 22 22 22 23 24 25 27 27 26 24 24 25 25 25 25 25 26 27 28 30 32 34 36 38 39 41 44 47 49 52 54 56 57 58 59 59 56 58 56 49 43 37 28 20 18 18
2 2 3 4 3 2 1 2 5 5 3 2 1 1 1 1 1 1 0 2 3 2 3 4 5 5 6 5 7 10 9 8 8 7 8 11 15 19 22 22 22 22 21 23 24 25 25 23 22 22 22 22 22 22 23 24 25 27 28 30 32 34 36 37 38 39 40 42 43 46 49 51 52 54 56 57 56 57 54 46 38 30 22 17 17 18
1 2 3 3 3 2 4 4 3 6 5 5 4 4 3 3 3 1 3 1 1 3 5 2 8 9 5 5 7 9 8 8 8 7 9 14 19 22 23 22 21 21 22 23 23 22 21 21 21 21 21 22 23 24 25 26 27 29 30 31 32 34 35 37 38 38 39 40 42 44 46 47 49 51 53 54 55 53 49 42 33 23 17 16 17 18
2 3 1 4 4 5 6 3 1 4 4 4 3 3 3 4 5 4 4 3 1 2 2 2 4 9 4 6 7 7 7 6 6 7 11 18 22 23 23 22 21 21 20 19 18 18 19 20 21 23 24 25 27 28 29 30 31 31 32 33 34 35 35 36 38 38 39 40 41 43 44 46 49 50 51 51 50 48 44 38 28 18 15 16 17 19
2 3 1 4 5 4 5 3 2 1 2 2 2 2 4 3 3 5 5 3 3 4 2 1 4 8 5 3 5 6 4 4 7 11 14 20 24 24 22 21 20 18 16 16 17 18 20 22 23 25 27 29 31 32 33 34 35 36 37 38 39 41 41 41 41 41 41 41 42 42 43 44 46 47 47 46 46 44 38 30 20 15 15 17 18 19
2 0 2 2 6 7 6 5 4 4 0 3 3 2 4 4 5 3 2 3 1 7 7 3 8 8 4 3 4 4 4 7 13 16 17 20 23 22 20 17 15 14 15 17 19 21 22 23 24 27 29 31 33 34 35 36 37 38 39 40 41 42 43 43 43 42 41 41 41 42 42 43 45 44 41 40 40 36 28 20 15 15 16 18 19 19
3 2 3 2 3 5 5 5 4 3 2 2 2 3 5 5 6 3 1 2 3 6 7 6 9 10 6 5 6 8 8 10 14 19 22 21 18 17 15 13 12 13 16 19 20 20 21 23 26 28 30 32 33 35 36 37 38 39 39 39 39 39 39 39 39 39 39 39 38 39 39 39 38 36 33 32 30 24 18 15 15 16 17 18 19 19
2 1 4 6 7 7 8 8 3 2 2 5 4 4 6 6 6 5 3 3 5 3 4 9 12 15 16 13 10 11 10 7 11 19 22 18 14 12 11 11 12 15 18 19 19 20 22 25 28 30 31 32 34 34 35 36 36 37 38 37 36 34 34 34 34 33 33 33 33 33 33 32 29 26 23 21 18 14 13 15 17 17 18 18 18 19
3 2 5 7 10 11 10 9 3 1 5 9 8 7 7 6 6 7 7 10 4 3 7 12 9 10 18 16 13 13 10 7 11 16 15 11 9 9 9 11 14 16 17 17 19 22 26 28 29 30 31 32 33 33 33 34 35 35 34 32 31 30 31 33 33 33 32 31 29 28 27 24 21 16 11 10 10 12 15 17 18 18 18 18 18 19
4 4 5 3 8 10 9 10 8 5 7 8 8 10 9 8 9 11 16 16 7 5 13 14 8 10 15 16 15 15 15 14 15 13 10 8 8 9 10 12 15 16 15 16 19 23 26 27 28 30 31 31 32 32 33 35 35 35 32 28 26 28 29 30 32 33 32 30 28 26 23 20 16 12 9 10 13 16 17 17 17 17 17 17 18 18
3 3 3 1 6 9 8 10 9 6 7 8 10 12 11 10 13 14 17 16 10 11 17 18 17 17 16 15 16 19 22 21 15 11 9 10 11 11 12 15 15 14 15 18 22 24 25 26 27 28 29 30 31 32 34 35 36 35 30 24 25 27 28 29 30 30 28 25 23 21 19 18 17 16 15 16 17 16 16 16 16 15 16 17 17 18
2 3 1 3 5 9 5 4 5 3 5 9 13 14 12 11 11 12 14 12 9 11 15 16 16 17 15 12 13 18 20 15 11 11 9 9 9 12 14 15 13 14 17 20 22 24 24 25 26 27 28 30 30 32 34 35 34 32 27 22 24 27 28 28 28 26 24 22 20 19 19 19 19 18 17 16 15 15 15 14 14 14 15 16 17 18
3 3 2 5 3 7 2 5 7 6 6 10 15 17 15 11 8 8 8 7 7 8 10 9 9 10 8 5 7 10 9 8 11 12 11 10 10 12 13 12 12 16 18 20 22 24 24 24 25 27 28 29 30 32 34 34 32 28 24 21 22 24 25 25 24 23 22 21 21 21 20 19 17 16 15 15 15 14 14 14 14 14 15 16 17 18
3 2 0 2 2 6 3 4 7 8 8 9 11 11 10 7 6 5 5 6 8 7 4 6 7 6 3 3 5 5 4 7 10 10 10 10 9 9 9 10 13 17 19 21 23 23 23 24 25 27 27 28 30 32 33 30 27 25 22 19 20 21 21 21 21 21 22 23 24 23 21 18 16 14 14 14 14 13 13 14 14 15 16 17 18 19
3 4 2 2 2 6 6 5 6 6 6 7 6 6 7 7 8 8 8 9 9 7 5 8 8 6 6 6 6 5 4 7 10 9 8 8 7 7 8 10 14 18 20 21 21 21 23 24 25 24 25 27 30 31 30 26 24 23 21 19 19 19 19 20 20 22 23 25 25 24 21 18 15 14 14 14 14 14 14 14 15 16 17 18 19 20
4 4 2 1 2 4 4 5 5 5 7 7 6 5 6 6 8 9 9 11 10 9 10 11 10 9 10 9 6 5 7 10 11 9 7 7 8 9 11 14 17 20 21 20 20 21 23 23 22 23 25 28 30 29 26 24 23 23 22 20 20 19 19 20 21 23 25 25 24 23 20 18 16 15 15 15 15 16 16 16 16 17 17 18 19 20
6 5 2 1 2 3 2 2 2 6 9 10 8 2 3 2 4 3 7 10 11 10 9 9 9 10 11 11 8 7 10 14 14 12 10 8 8 11 16 19 20 20 19 18 20 22 22 21 21 23 27 29 29 26 23 23 23 22 21 21 20 19 20 21 23 25 25 24 23 22 20 19 18 17 17 18 18 18 18 18 18 17 18 18 19 20
7 5 2 2 2 2 2 3 3 8 12 10 3 2 3 4 4 3 5 7 9 9 7 6 6 8 10 11 10 10 12 13 12 11 12 9 10 15 19 20 19 18 18 19 22 22 20 20 21 24 28 28 25 23 22 22 22 21 21 21 20 20 21 22 23 24 23 22 22 21 21 20 19 19 19 20 20 20 20 19 19 18 18 19 20 20
6 4 5 4 2 2 1 4 4 5 7 6 4 4 3 4 6 5 1 5 6 8 8 6 5 8 9 9 9 9 9 9 7 7 10 10 13 17 19 18 17 19 20 22 23 21 19 20 22 25 26 25 22 21 21 22 21 21 21 21 20 20 21 21 22 21 21 21 21 21 22 21 21 21 21 21 21 21 21 20 20 19 19 20 21 21
3 1 4 4 3 1 2 3 3 4 7 6 5 5 4 7 7 6 2 7 5 7 8 6 6 9 10 9 8 5 4 6 7 4 6 9 13 15 16 16 18 20 22 23 23 21 20 21 23 24 23 21 21 21 21 21 20 20 21 20 20 20 20 20 20 20 20 20 20 21 21 21 22 22 22 22 22 21 21 21 20 20 20 21 22 22
3 2 3 4 6 3 3 4 4 5 8 7 6 5 7 9 8 5 5 9 7 9 8 7 9 11 10 10 7 2 2 6 8 6 7 11 15 15 16 17 19 22 24 23 21 20 20 21 22 21 20 20 20 20 20 20 19 19 20 20 19 19 19 18 18 18 19 19 19 20 20 21 21 21 21 22 22 22 21 21 21 21 21 22 22 23
1 1 2 4 5 5 5 5 5 5 9 9 6 8 13 10 5 1 5 6 8 11 10 9 10 11 10 10 9 7 9 11 12 12 13 14 15 16 16 18 20 22 22 21 20 20 20 20 20 19 18 18 19 19 19 19 18 18 19 19 18 18 18 18 18 18 18 19 19 19 20 20 21 21 21 21 22 22 21 21 21 22 22 22 23 24
2 1 1 2 3 4 4 4 4 7 9 7 8 12 14 7 1 4 5 3 5 9 10 9 10 10 10 11 12 13 15 15 13 14 15 15 15 16 17 20 21 21 20 19 19 19 19 18 18 17 16 17 17 17 18 18 18 18 18 18 18 18 18 18 18 18 19 19 19 20 20 21 21 21 21 21 22 22 22 21 21 22 22 23 24 24
5 3 2 3 4 3 1 2 3 7 6 12 15 10 7 6 4 4 4 4 7 9 8 9 10 11 11 13 14 14 15 14 13 14 14 15 16 17 19 21 21 20 20 19 18 18 18 17 17 16 16 16 16 17 17 18 18 18 18 18 18 18 18 18 19 19 19 20 20 21 21 22 22 21 22 22 22 23 23 22 22 23 23 23 24 25
5 6 3 4 4 4 3 5 6 5 7 21 18 4 6 11 10 10 8 7 8 8 8 9 10 11 12 13 13 13 14 13 13 14 15 16 18 19 20 22 21 20 20 19 17 17 17 17 17 16 15 15 16 16 17 17 18 18 18 18 18 19 19 19 19 20 20 20 21 21 22 22 22 22 22 22 22 23 23 23 23 23 23 23 24 25
9 9 5 4 5 5 6 10 8 4 9 21 18 10 9 11 13 14 11 10 8 8 9 9 11 12 13 13 14 13 14 13 14 15 17 18 19 20 21 22 21 20 19 18 16 16 16 17 16 16 15 15 15 16 16 17 18 19 18 19 19 20 20 20 20 21 21 21 21 22 22 23 22 22 22 22 22 23 23 23 23 23 23 23 24 24
10 11 4 1 3 5 11 16 16 13 14 18 18 16 14 13 14 13 12 10 9 9 12 13 14 15 14 14 14 13 14 14 15 17 18 18 20 21 21 21 20 19 18 17 16 15 16 16 16 15 15 14 15 16 16 17 19 19 19 20 20 21 21 21 22 22 22 22 22 22 23 24 23 23 23 22 22 23 24 24 25 24 24 24 24 24
5 9 6 3 3 4 7 9 7 8 12 12 13 16 17 15 13 11 10 10 11 13 15 16 16 16 15 14 14 14 14 15 16 17 18 19 20 21 21 21 19 18 17 16 15 15 16 16 16 15 15 15 15 16 17 17 19 20 20 21 21 22 22 22 23 23 23 23 23 23 24 25 25 24 24 24 23 24 24 24 25 25 25 25 24 25
1 5 5 6 7 7 10 12 9 11 18 21 20 20 17 13 12 11 11 13 14 15 16 16 16 16 15 15 14 14 15 16 16 17 18 19 20 21 20 19 18 16 15 15 15 15 16 16 16 16 15 16 16 17 17 18 19 20 21 22 22 23 23 23 24 24 24 24 24 24 25 25 25 25 25 25 24 25 25 24 24 25 25 25 25 26
4 4 4 4 4 7 13 16 13 14 18 17 14 12 10 10 12 13 13 14 15 15 16 16 15 15 15 15 15 14 15 16 16 17 18 19 20 20 18 17 16 15 14 14 15 15 15 16 17 16 16 16 17 17 18 19 19 20 21 22 23 23 24 24 24 24 24 24 24 25 25 25 25 25 26 26 25 25 25 25 25 26 26 25 24 25
5 5 4 2 3 7 9 7 5 6 8 9 9 10 11 13 13 13 14 15 15 15 15 14 15 16 15 15 15 15 15 16 16 18 19 20 20 19 16 15 14 14 14 14 15 15 15 16 17 17 17 17 17 18 18 19 20 21 21 22 23 23 24 25 26 26 25 25 25 25 25 26 25 25 26 26 27 27 26 25 24 25 26 27 25 25
13 12 7 5 6 10 11 10 9 9 10 11 12 12 12 13 14 14 14 14 13 14 14 14 15 16 15 15 16 15 16 17 18 19 20 19 18 17 15 14 14 14 14 14 15 15 15 16 17 18 17 17 18 18 19 20 21 22 22 23 23 24 25 25 27 27 27 26 26 26 26 26 26 26 26 26 27 28 28 27 25 23 23 25 26 26
Wind_Direction
55 64 37 7 297 305 300 277 203 107 99 111 97 77 84 106 17 301 293 351 30 57 359 345 239 215 222 240 231 220 230 240 241 242 242 248 253 254 261 269 277 283 291 291 281 281 283 279 277 273 271 268 266 266 265 264 264 262 261 259 259 258 257 257 259 262 264 267 271 274 277 280 282 285 287 290 292 294 297 300 302 304 306 307 306 304
60 69 4 314 280 289 313 291 133 84 70 79 96 93 60 77 199 295 295 346 9 39 308 42 116 242 240 248 245 226 226 241 238 236 244 252 258 261 264 270 278 285 289 285 282 284 282 280 279 276 273 270 270 270 267 266 263 260 259 257 256 256 256 257 259 262 265 267 270 273 275 278 281 284 286 290 293 296 299 302 304 306 308 309 308 306
54 53 313 318 302 297 16 36 85 79 72 64 76 101 60 22 278 283 316 353 11 37 264 49 177 262 256 249 249 232 226 240 241 242 252 259 264 264 264 270 276 280 281 278 278 277 276 277 275 273 273 273 273 272 268 265 262 260 259 258 256 256 257 258 261 264 266 269 271 274 276 278 280 283 286 289 292 296 299 302 305 308 309 309 308 306
71 357 311 341 356 101 58 34 53 67 63 58 65 92 353 332 3 240 310 353 15 44 147 133 240 277 265 253 254 239 234 245 250 252 259 262 263 265 267 271 273 273 275 275 275 273 272 272 271 273 277 276 274 272 270 268 266 264 263 261 258 257 258 260 263 266 268 271 273 275 277 279 281 283 286 289 293 297 299 302 305 307 308 308 307 305
96 307 315 2 31 86 81 38 39 53 36 16 87 115 121 318 267 226 290 338 11 16 89 99 342 298 270 257 261 245 235 247 252 256 260 259 259 262 265 266 266 268 272 274 275 274 272 272 274 278 278 277 275 277 278 276 272 270 267 264 261 260 260 261 264 267 270 272 274 275 277 279 281 283 286 289 293 297 299 302 304 306 307 307 306 304
64 339 344 32 30 48 76 47 22 58 56 346 258 150 145 247 250 274 331 17 32 360 2 72 12 300 299 265 257 262 236 250 253 254 259 259 258 258 260 263 265 267 270 272 275 276 273 273 275 277 277 277 279 286 290 284 277 274 270 266 264 263 263 264 265 267 270 272 274 275 277 279 281 283 285 289 293 295 297 300 303 306 306 306 305 303
24 6 38 77 49 46 63 49 357 95 89 10 228 139 134 182 195 199 95 84 72 305 301 47 92 269 308 294 271 295 271 264 264 258 260 262 260 258 259 263 265 267 268 270 274 275 274 274 275 277 279 279 283 293 294 285 280 277 273 270 267 267 268 268 267 268 270 272 273 275 276 278 279 281 285 288 291 292 295 298 301 304 304 304 304 303
350 12 26 47 55 55 58 33 314 118 101 43 176 84 157 166 165 168 131 103 167 232 336 22 113 220 294 281 292 328 288 284 282 267 264 261 260 259 260 263 265 267 268 269 272 274 275 277 277 280 284 282 285 290 286 283 284 281 277 274 270 269 270 270 269 268 269 271 273 274 275 277 278 280 284 286 287 289 292 295 297 300 301 301 302 303
323 14 10 37 54 51 78 263 236 135 116 251 171 53 145 159 151 134 106 86 14 10 322 311 131 191 276 272 321 9 332 296 277 262 260 259 260 261 261 263 266 269 269 268 270 275 278 280 283 285 286 284 284 282 279 281 284 282 279 275 271 270 270 271 271 270 270 272 273 273 274 275 277 279 281 282 284 286 288 291 293 295 297 298 300 302
198 144 12 94 74 19 244 251 207 140 307 277 132 78 53 74 74 79 86 89 49 21 263 261 141 171 276 278 314 22 314 266 261 257 256 260 267 268 266 268 269 271 272 270 271 275 281 285 288 287 285 286 286 281 278 278 279 279 279 277 274 273 272 272 272 272 272 273 273 273 274 275 276 277 278 279 280 282 284 286 288 290 292 294 297 299
262 208 194 90 81 252 252 263 194 177 284 333 100 77 40 34 34 52 54 78 64 319 254 247 182 112 292 280 251 205 220 215 224 260 267 270 282 285 280 280 278 279 281 279 277 279 283 286 288 286 286 291 292 286 281 279 278 278 279 279 277 277 276 274 273 273 274 274 274 274 275 275 276 276 275 276 277 279 280 282 284 286 287 289 292 295
357 41 299 306 296 283 279 262 217 242 315 56 79 72 85 348 4 23 357 38 95 263 255 257 325 104 206 266 248 233 245 212 196 234 259 271 286 299 301 297 291 291 293 291 288 287 288 288 289 289 291 297 297 290 287 285 282 279 278 278 278 279 279 278 277 275 276 276 276 277 277 277 277 275 274 274 275 277 277 279 280 280 281 283 287 290
9 354 308 305 288 329 50 125 315 334 8 41 49 61 82 343 3 6 320 347 200 245 254 296 352 325 227 252 255 254 258 241 224 230 241 259 275 291 307 309 301 298 300 302 300 298 297 296 297 298 298 301 300 296 295 291 286 282 279 277 277 280 281 281 280 279 278 278 279 279 279 279 278 276 274 274 275 275 275 275 276 276 276 278 282 286
353 305 326 346 275 339 69 94 18 327 4 28 63 85 93 75 37 308 285 311 270 267 282 319 337 294 275 269 244 236 247 246 238 241 249 261 271 279 289 298 302 307 311 312 310 310 309 309 310 308 307 306 305 304 301 296 291 286 282 279 278 281 283 282 282 282 281 281 282 282 280 280 279 276 275 274 274 274 274 272 272 271 271 273 278 283
83 307 307 104 244 353 62 126 149 147 51 26 151 120 115 142 139 237 237 234 270 286 298 315 309 218 237 269 239 233 253 263 259 260 265 268 271 277 285 293 307 319 325 324 323 324 325 326 325 321 318 315 314 313 309 303 299 293 288 285 282 283 286 286 284 284 283 284 285 283 281 280 279 277 275 274 273 274 272 269 266 266 267 269 275 281
102 246 256 285 289 69 93 171 134 101 63 314 151 92 80 179 147 157 200 191 224 311 296 269 231 215 220 271 276 270 273 273 270 269 269 270 275 283 292 304 318 326 333 334 333 333 334 335 333 330 328 325 322 321 317 314 309 302 297 293 289 287 289 288 286 286 286 287 286 284 282 282 280 277 275 274 275 275 271 265 262 263 263 266 271 278
81 275 279 344 332 58 124 172 138 92 186 37 64 170 224 167 117 107 270 348 66 322 285 246 248 284 312 294 304 347 323 295 292 280 271 278 288 295 303 317 327 330 335 336 335 336 337 337 337 335 333 330 329 329 327 326 321 313 306 301 297 294 292 290 290 290 290 288 287 285 284 283 281 279 278 278 278 276 270 263 260 261 259 261 267 273
135 282 295 51 133 330 122 144 82 70 119 93 133 217 193 83 75 92 338 351 33 265 274 251 245 286 333 292 320 357 332 301 303 302 302 301 302 308 317 327 331 333 335 335 336 338 339 339 340 338 336 334 335 336 334 333 330 323 316 310 306 302 299 298 297 295 293 291 289 287 286 284 283 283 282 279 277 275 270 262 258 257 256 258 265 271
110 332 301 279 122 324 359 96 24 26 62 106 160 171 125 105 311 67 135 291 339 288 282 280 267 261 216 235 293 302 263 264 283 297 305 298 302 316 322 327 331 334 335 336 340 341 341 343 343 341 339 336 335 333 330 329 327 326 324 320 315 311 309 307 304 301 298 296 293 291 290 288 286 284 282 277 273 272 268 260 255 253 253 257 265 272
94 108 291 301 349 321 1 65 243 308 46 77 124 107 60 142 183 169 143 176 194 269 283 302 316 242 227 220 215 238 241 237 258 280 281 281 301 318 318 324 330 333 335 339 343 343 345 347 344 341 336 330 328 326 325 325 324 324 326 325 323 320 318 316 313 310 306 303 300 298 295 291 288 285 281 275 271 270 267 260 253 250 250 259 270 275
67 118 250 297 335 317 293 205 198 182 146 123 164 250 295 113 161 170 174 142 141 202 242 297 297 254 232 208 199 229 245 233 237 254 264 282 307 315 315 324 330 332 338 343 345 345 345 343 337 332 329 326 325 325 325 326 324 324 325 326 326 325 324 322 320 319 316 312 308 303 299 296 293 289 284 279 275 271 267 258 250 247 251 264 274 279
119 142 204 281 319 255 241 244 194 176 169 157 178 204 191 157 129 135 279 289 98 193 191 224 286 273 233 192 208 228 237 240 245 246 265 295 310 313 319 330 333 338 346 347 346 345 342 339 336 333 332 330 329 327 327 327 326 327 327 328 328 327 327 327 325 322 319 316 311 307 304 302 299 294 289 284 277 270 263 253 247 248 259 272 280 283
159 110 132 264 258 237 256 284 149 171 166 146 186 199 147 136 138 150 232 254 192 234 198 142 277 280 244 191 213 234 233 240 262 273 289 306 313 317 326 336 342 348 349 346 344 342 341 340 338 335 333 332 332 330 329 328 326 326 325 324 324 323 323 322 320 319 317 314 311 308 305 303 301 296 288 280 271 264 256 247 245 254 271 283 287 285
140 82 48 283 293 306 310 330 45 90 112 155 231 174 142 160 150 154 185 184 174 225 224 139 266 275 279 245 233 236 229 252 292 305 305 308 316 324 333 343 350 350 346 342 342 342 342 340 337 336 335 334 332 330 328 327 325 324 323 322 322 320 319 318 315 314 313 311 309 308 307 305 301 293 282 273 266 260 250 242 249 270 283 288 288 285
192 218 94 339 328 333 340 350 345 335 284 215 243 203 167 134 100 118 160 100 224 226 192 199 266 262 263 288 270 252 267 290 306 318 318 314 321 332 342 350 353 348 344 345 346 345 344 342 340 338 335 333 331 329 329 328 328 327 326 326 326 325 323 321 319 317 315 312 310 309 308 308 304 292 279 269 262 254 244 245 267 286 289 289 286 285
189 204 139 144 276 281 292 299 288 277 238 230 250 215 200 163 142 169 155 101 253 231 168 187 260 270 268 284 295 295 297 307 317 320 319 321 331 340 346 353 351 347 349 350 350 349 346 342 339 336 334 333 332 332 331 331 331 332 331 332 334 333 330 327 323 319 315 312 311 310 311 311 305 293 279 268 259 249 246 265 288 294 291 289 286 285
118 228 197 191 206 222 241 249 228 127 229 260 260 229 212 195 166 132 107 196 212 181 185 220 249 280 286 286 292 294 295 308 312 313 319 332 345 346 347 348 344 346 350 350 348 345 342 339 337 336 336 335 334 333 334 335 336 336 337 339 342 344 345 343 340 336 330 324 322 321 321 318 310 301 289 273 258 252 269 291 299 296 292 290 287 286
82 290 240 210 223 236 249 261 267 68 258 257 256 244 224 201 164 150 209 232 187 101 265 245 222 255 278 287 292 294 304 312 303 311 328 346 351 347 346 343 343 348 350 347 344 341 338 338 337 337 337 335 335 335 337 339 340 340 341 344 348 353 357 357 355 355 354 353 352 349 343 335 327 324 311 284 275 287 299 302 300 296 293 289 286 284
117 261 247 208 246 252 257 271 273 262 261 260 253 251 241 211 186 197 229 239 210 210 260 266 253 249 270 287 292 297 306 304 302 320 342 346 344 348 346 346 349 352 351 346 342 340 339 339 338 337 336 336 337 338 339 340 341 340 342 346 347 350 354 354 351 352 356 1 7 8 3 357 353 347 331 313 309 307 304 301 297 294 291 286 283 282
153 251 244 152 286 276 258 265 268 256 266 274 263 254 246 227 213 218 238 245 231 234 256 271 278 273 273 278 284 292 297 297 308 334 343 335 338 342 344 350 354 352 347 342 339 339 340 339 336 335 336 337 338 338 339 340 339 338 339 341 341 341 343 345 344 346 350 354 359 359 354 349 343 334 323 316 311 306 302 300 297 293 288 284 283 283
178 260 311 76 313 291 282 295 298 264 252 271 274 264 252 240 230 230 244 249 240 247 257 264 273 276 275 270 271 283 294 307 330 341 339 338 340 339 343 351 353 346 341 338 338 339 339 337 335 334 336 337 337 337 338 337 335 335 337 339 338 337 339 340 339 342 346 348 348 345 341 336 329 322 317 313 309 307 305 303 298 293 289 286 286 287
163 256 354 59 327 284 332 8 328 307 283 275 275 268 254 240 226 225 234 221 201 226 252 263 270 269 266 259 261 276 302 335 336 330 330 328 328 336 343 347 343 339 338 338 337 337 336 335 334 333 334 334 334 335 335 334 333 335 338 341 340 338 338 337 337 339 341 343 344 343 340 335 326 319 315 312 311 310 307 305 302 297 294 291 290 289
147 170 139 78 270 272 317 356 324 324 318 283 263 247 227 210 207 233 251 222 201 205 234 251 251 250 259 295 296 298 332 340 328 321 316 313 320 336 341 337 335 336 337 336 334 333 333 331 330 330 330 331 332 333 333 333 334 337 339 340 338 337 337 336 335 336 337 339 341 341 340 336 328 323 321 317 315 313 310 308 304 299 297 294 291 290
145 143 176 173 216 269 296 336 334 319 294 267 239 187 178 182 195 217 243 237 215 200 214 244 261 285 299 298 296 297 307 322 320 302 286 298 319 333 334 333 334 336 335 333 331 329 327 325 325 326 326 328 330 331 331 333 336 337 337 336 334 335 336 334 333 333 334 335 336 337 338 335 330 326 324 322 320 317 313 309 303 298 295 292 290 289
149 155 187 188 195 262 308 4 341 270 236 248 265 220 202 203 192 204 240 250 238 229 238 256 272 278 280 284 287 291 305 323 322 293 267 286 309 325 335 335 332 333 331 328 325 324 322 321 321 323 325 328 329 330 331 334 337 337 337 336 335 336 334 331 330 330 330 331 332 334 336 335 332 327 324 321 319 316 313 309 303 298 293 289 288 288
148 153 168 169 196 266 331 72 235 266 273 286 297 259 182 155 144 200 267 260 245 238 234 245 260 263 274 286 292 301 314 321 312 283 260 276 308 324 330 328 327 327 324 320 318 319 319 318 318 321 324 326 327 329 332 335 336 336 335 334 334 333 330 326 325 326 327 328 330 332 333 333 330 327 324 321 318 315 313 309 305 300 295 290 288 286
146 140 172 220 216 213 233 223 253 311 311 303 303 143 141 131 142 186 268 258 237 228 217 220 249 264 274 281 288 305 315 315 301 267 245 259 299 314 318 320 320 318 315 314 315 316 315 313 314 319 322 324 326 329 332 334 334 334 334 333 332 329 326 325 325 326 327 328 329 330 331 330 328 325 322 319 317 315 313 310 306 302 297 293 291 289
158 164 174 195 232 142 166 283 309 328 299 269 245 234 178 120 129 140 181 269 244 217 205 200 228 258 266 271 283 307 319 315 299 247 229 257 293 308 314 316 314 313 314 314 315 315 311 310 315 319 322 324 327 329 330 330 331 332 333 333 333 331 330 329 329 329 329 329 329 329 328 327 325 323 320 317 315 313 311 308 305 301 297 294 292 290
110 58 133 171 258 158 137 241 243 252 259 243 231 228 153 135 138 116 38 292 249 193 190 195 228 253 258 261 274 306 335 316 305 253 230 278 305 313 315 313 311 313 314 313 314 312 310 313 318 320 321 324 326 327 327 328 329 331 332 334 334 334 333 332 331 331 331 329 328 326 325 323 321 319 317 315 313 310 308 306 303 299 296 293 291 289
89 49 118 194 237 209 169 227 236 246 255 244 233 217 159 143 130 88 336 282 222 188 201 214 235 251 256 259 261 222 203 277 297 295 281 296 308 310 309 309 310 312 312 311 311 310 311 315 318 320 323 324 325 325 325 325 328 331 331 333 334 333 334 333 332 332 329 327 325 322 320 319 316 314 312 310 308 306 304 302 299 296 293 291 289 287
143 219 183 212 236 208 198 243 268 261 255 255 241 185 156 136 107 104 266 245 195 199 223 231 240 253 256 252 243 233 252 274 286 286 284 290 300 303 304 306 308 309 309 309 308 310 314 317 319 321 322 322 321 322 322 323 327 329 330 331 332 332 333 332 330 329 327 324 322 319 316 315 312 309 308 305 303 301 299 298 296 294 291 289 288 286
191 218 195 202 226 200 198 236 282 286 264 225 158 145 147 139 152 223 222 224 209 223 235 237 246 260 263 258 256 264 280 291 287 281 283 289 295 300 302 303 306 306 305 304 306 310 315 318 318 318 318 318 318 319 320 321 324 327 329 330 330 330 330 329 327 326 324 322 320 317 315 313 310 308 306 303 301 299 297 297 295 292 291 290 289 288
175 177 213 209 188 164 164 209 255 290 255 159 135 126 159 188 239 258 256 267 250 241 240 243 259 273 273 271 275 280 289 297 290 284 286 290 295 300 301 303 306 305 303 303 306 311 316 317 316 316 316 317 317 317 318 320 322 326 327 327 327 327 326 325 324 322 321 319 317 315 314 312 310 309 307 305 302 300 299 299 297 294 293 292 291 291
185 182 209 227 187 148 159 200 216 261 191 162 155 166 214 217 254 284 281 263 249 245 248 257 272 282 280 280 286 289 293 295 288 284 286 290 295 300 301 303 305 302 302 304 308 313 316 314 313 314 315 315 315 316 318 319 320 324 326 325 325 324 324 324 323 321 320 318 316 314 313 312 311 311 309 308 306 304 303 302 300 298 296 294 292 292
205 192 189 221 209 190 214 227 231 243 188 183 199 247 260 248 267 276 270 265 261 260 270 281 288 291 290 289 288 290 293 291 285 285 288 291 296 300 302 305 304 300 301 306 310 313 313 311 311 313 314 314 314 315 318 319 319 322 324 324 323 322 323 323 321 321 321 318 316 315 312 312 312 311 310 309 307 306 305 304 302 301 299 296 294 293
214 200 183 197 239 256 264 256 252 257 246 228 236 259 271 274 276 271 264 266 273 284 294 299 297 295 292 287 285 288 291 288 284 285 287 290 297 301 304 305 302 299 301 305 309 311 310 308 309 309 311 313 313 315 318 318 318 320 322 323 322 322 322 322 321 321 321 318 316 315 313 312 313 312 311 310 308 306 306 305 304 302 301 299 297 295
233 203 198 231 252 268 275 261 239 247 261 262 266 274 278 279 274 263 262 272 286 298 301 299 297 295 288 283 285 288 288 285 284 284 286 293 299 303 305 304 301 300 302 305 308 309 306 305 306 307 310 312 312 314 317 317 317 320 320 321 321 321 321 321 320 320 320 319 317 316 315 314 314 314 313 311 310 308 307 305 304 302 302 301 299 296
199 175 197 233 230 232 257 264 265 280 285 285 283 282 279 272 263 260 269 281 290 297 298 295 292 288 283 284 286 288 286 283 281 284 291 298 303 304 305 304 301 300 303 305 307 307 304 303 306 308 311 312 312 313 315 316 317 318 318 318 319 319 319 319 319 319 319 319 318 316 316 315 314 314 314 313 312 311 309 308 305 303 302 302 299 296
162 171 201 220 233 254 269 274 281 293 290 280 273 272 266 260 263 267 274 281 287 292 293 291 288 284 283 285 285 285 284 281 284 292 299 303 304 305 304 302 300 302 304 305 305 303 301 303 305 308 309 311 312 313 314 315 316 316 316 317 317 318 318 318 318 318 319 318 318 316 315 315 315 315 314 314 314 312 311 310 308 305 304 303 299 297
172 215 215 184 258 264 265 267 270 280 277 267 266 269 264 263 266 268 271 279 287 290 290 286 282 282 282 282 283 284 284 285 292 299 303 304 305 304 303 301 301 303 304 303 302 301 301 302 304 306 308 310 312 313 313 314 315 315 315 316 316 317 318 318 318 319 319 319 319 318 317 316 316 316 315 315 315 313 311 310 309 307 306 306 303 300
210 229 214 185 229 252 263 274 270 256 261 275 281 275 266 264 265 264 270 281 288 290 288 281 277 278 279 280 282 285 288 293 299 302 304 305 305 303 303 303 303 304 303 301 299 299 300 300 302 304 307 309 310 312 313 314 314 314 314 315 316 317 318 318 318 318 320 321 320 319 318 318 318 317 317 316 315 314 313 311 309 307 305 304 303 301